sat.trackr.live / text

‹ back to catalog

STARLINK-31033

NORAD 58723 · 2024-002U

PAYLOAD ACTIVE UNKNOWN

§ Identity

Operator
Country
US
Launch date
2024-01-03
Launch site
AFWTR
Launch vehicle
Mass (kg)
RCS (m²)

Purposes: comms

External: N2YO · Heavens-Above · Gunter

§ Orbital elements

Epoch: 2026-09-20T13:40:03.867744Z

Period
93.85 min
Inclination
53.1593°
Eccentricity
0.0001250
Mean motion
15.34386462 rev/d
Perigee alt
461.9 km
Apogee alt
463.6 km
Semi-major
6,840.9 km
B*
4.3078e-6
RAAN
43.2229°
Arg perigee
89.1623°
Mean anomaly
270.9523°
Rev number
15,187

§ Raw data

STARLINK-310331 58723U 24002U   26263.56948921 -.00000231  00000+0  43078-5 0  99992 58723  53.1593  43.2229 0001250  89.1623 270.9523 15.34386462151874

JSON: /api/v1/satellites/58723 · /tle

For live sub-satellite position, see the globe view (requires WebGL).

§ Visibility from observer

Set your observer location to see the next 7 days of passes ≥ 10°. The values pass through the URL so the page stays shareable.

No JS? Fill the form by hand. The geolocation button needs JavaScript.